This demonstration page uses our WeatherBlox Daily Observations layout. Learn more.

Hourly Observations for May 20, 2019

Temp ( °F °C ) Dew Point ( °F °C ) Humidity (%) Winds ( mph kmh ) Pressure ( in mb ) Visibility ( mi km ) Precip ( " mm )
12:15 am 00:15 Clear 79 26 68 20 70 70 S 9 15 29.91 1013 10 16.09344 0 0
12:35 am 00:35 Clear 77 25 66 19 69 69 SSW 7 11 29.91 1013 10 16.09344 0 0
12:55 am 00:55 Partly Cloudy 77 25 66 19 69 69 S 7 11 29.91 1013 10 16.09344 0 0
1:15 am 01:15 Mostly Cloudy 79 26 66 19 65 65 SSW 10 17 29.91 1013 10 16.09344 0 0
1:35 am 01:35 Cloudy 77 25 66 19 69 69 SSW 13 20 29.91 1013 10 16.09344 0 0
1:55 am 01:55 Mostly Cloudy 73 23 68 20 83 83 W 7 11 29.91 1013 10 16.09344 0 0
2:15 am 02:15 Mostly Cloudy 72 22 68 20 88 88 WSW 5 7 29.91 1013 10 16.09344 0 0
2:35 am 02:35 Mostly Cloudy 72 22 68 20 88 88 SW 5 7 29.91 1013 10 16.09344 0 0
2:55 am 02:55 Mostly Cloudy 72 22 68 20 88 88 WSW 3 6 29.91 1013 10 16.09344 0 0
3:15 am 03:15 Mostly Cloudy 72 22 68 20 88 88 SSW 3 6 29.88 1012 10 16.09344 0 0
3:35 am 03:35 Mostly Cloudy 72 22 68 20 88 88 SSW 6 9 29.88 1012 10 16.09344 0 0
3:55 am 03:55 Partly Cloudy 72 22 68 20 88 88 SSW 6 9 29.88 1012 10 16.09344 0 0
4:15 am 04:15 Partly Cloudy 72 22 68 20 88 88 SSW 6 9 29.88 1012 10 16.09344 0 0
4:35 am 04:35 Partly Cloudy 72 22 68 20 88 88 SSW 5 7 29.88 1012 10 16.09344 0 0
4:55 am 04:55 Partly Cloudy 70 21 66 19 88 88 SW 3 6 29.91 1013 10 16.09344 0 0
5:15 am 05:15 Clear 70 21 66 19 88 88 Calm 29.91 1013 10 16.09344 0 0
5:35 am 05:35 Clear 70 21 68 20 94 94 Calm 29.91 1013 10 16.09344 0 0
5:55 am 05:55 Sunny 68 20 66 19 94 94 Calm 29.91 1013 10 16.09344 0 0
6:15 am 06:15 Sunny 68 20 66 19 94 94 S 3 6 29.91 1013 10 16.09344 0 0
6:35 am 06:35 Sunny 68 20 66 19 94 94 S 5 7 29.91 1013 10 16.09344 0 0
6:55 am 06:55 Sunny 70 21 64 18 83 83 S 6 9 29.91 1013 10 16.09344 0 0
7:15 am 07:15 Sunny 70 21 66 19 88 88 SSW 5 7 29.91 1013 10 16.09344 0 0
7:35 am 07:35 Sunny 72 22 66 19 83 83 S 7 11 29.91 1013 10 16.09344 0 0
7:55 am 07:55 Sunny 73 23 68 20 83 83 SSW 6 9 29.91 1013 10 16.09344 0 0
8:15 am 08:15 Sunny 75 24 68 20 78 78 SW 7 11 29.91 1013 10 16.09344 0 0
8:35 am 08:35 Sunny 77 25 68 20 74 74 SW 7 11 29.91 1013 10 16.09344 0 0
8:55 am 08:55 Sunny 77 25 68 20 74 74 SSW 6 9 29.91 1013 10 16.09344 0 0
9:15 am 09:15 Sunny 77 25 68 20 74 74 S 7 11 29.91 1013 10 16.09344 0 0
9:35 am 09:35 Sunny 79 26 68 20 70 70 SSW 9 15 29.91 1013 10 16.09344 0 0
9:55 am 09:55 Sunny 79 26 68 20 70 70 SSW 8 13 29.91 1013 10 16.09344 0 0
10:15 am 10:15 Partly Cloudy 79 26 68 20 70 70 SW 7 11 29.91 1013 10 16.09344 0 0
10:35 am 10:35 Mostly Cloudy 81 27 68 20 66 66 SSW 6 9 29.91 1013 10 16.09344 0 0
10:55 am 10:55 Mostly Cloudy 82 28 68 20 62 62 S 6 9 29.88 1012 10 16.09344 0 0
11:15 am 11:15 Partly Cloudy 82 28 68 20 62 62 WSW 8 13 29.91 1013 10 16.09344 0 0
11:35 am 11:35 Partly Cloudy 86 30 68 20 55 55 SW 10 17 29.85 1011 10 16.09344 0 0
11:55 am 11:55 Partly Cloudy 86 30 64 18 49 49 WSW 14 22 29.85 1011 10 16.09344 0 0
12:15 pm 12:15 Mostly Cloudy 86 30 66 19 52 52 W 13 20 29.85 1011 10 16.09344 0 0
12:35 pm 12:35 Partly Cloudy 86 30 68 20 55 55 SW 8 13 29.85 1011 10 16.09344 0 0
12:55 pm 12:55 Partly Cloudy 86 30 66 19 52 52 W 10 17 29.85 1011 10 16.09344 0 0
1:15 pm 13:15 Partly Cloudy 86 30 66 19 52 52 W 14 22 29.85 1011 10 16.09344 0 0
1:35 pm 13:35 Mostly Cloudy 86 30 66 19 52 52 SW 9 15 29.83 1010 10 16.09344 0 0
1:55 pm 13:55 Partly Cloudy 86 30 68 20 55 55 SSW 7 11 29.83 1010 10 16.09344 0 0
2:15 pm 14:15 Partly Cloudy 88 31 68 20 52 52 SSW 13 20 29.8 1009 10 16.09344 0 0
2:35 pm 14:35 Partly Cloudy 88 31 68 20 52 52 W 15 24 29.8 1009 10 16.09344 0 0
2:55 pm 14:55 Partly Cloudy 88 31 64 18 46 46 WSW 9 15 29.8 1009 10 16.09344 0 0
3:15 pm 15:15 Mostly Cloudy 86 30 64 18 49 49 WSW 6 9 29.8 1009 10 16.09344 0 0
3:35 pm 15:35 Partly Cloudy 88 31 68 20 52 52 WSW 9 15 29.77 1008 10 16.09344 0 0
3:55 pm 15:55 Partly Cloudy 88 31 64 18 46 46 WSW 6 9 29.77 1008 10 16.09344 0 0
4:15 pm 16:15 Mostly Cloudy 84 29 66 19 55 55 W 7 11 29.77 1008 10 16.09344 0 0
4:35 pm 16:35 Mostly Cloudy 86 30 68 20 55 55 Calm 29.77 1008 10 16.09344 0 0
4:55 pm 16:55 Sunny 88 31 63 17 43 43 W 12 19 29.77 1008 10 16.09344 0 0
5:15 pm 17:15 Sunny 88 31 63 17 43 43 NW 12 19 29.77 1008 10 16.09344 0 0
5:35 pm 17:35 Sunny 88 31 59 15 38 38 NW 13 20 29.77 1008 10 16.09344 0 0
5:55 pm 17:55 Partly Cloudy 86 30 61 16 43 43 NW 13 20 29.77 1008 10 16.09344 0 0
6:15 pm 18:15 Partly Cloudy 86 30 57 14 38 38 NW 14 22 29.77 1008 10 16.09344 0 0
6:35 pm 18:35 Sunny 86 30 59 15 40 40 NW 15 24 29.8 1009 10 16.09344 0 0
6:55 pm 18:55 Sunny 84 29 55 13 37 37 NW 12 19 29.77 1008 10 16.09344 0 0
7:15 pm 19:15 Sunny 82 28 54 12 37 37 WNW 14 22 29.83 1010 10 16.09344 0 0
7:35 pm 19:35 Sunny 81 27 54 12 39 39 WNW 12 19 29.83 1010 10 16.09344 0 0
7:55 pm 19:55 Sunny 79 26 54 12 42 42 NW 10 17 29.83 1010 10 16.09344 0 0
8:15 pm 20:15 Sunny 79 26 55 13 45 45 NNW 10 17 29.83 1010 10 16.09344 0 0
8:35 pm 20:35 Clear 79 26 55 13 45 45 NNW 14 22 29.85 1011 10 16.09344 0 0
8:55 pm 20:55 Clear 77 25 55 13 47 47 NW 12 19 29.85 1011 10 16.09344 0 0
9:15 pm 21:15 Clear 77 25 55 13 47 47 NW 13 20 29.85 1011 10 16.09344 0 0
9:35 pm 21:35 Clear 77 25 55 13 47 47 NW 12 19 29.88 1012 10 16.09344 0 0
9:55 pm 21:55 Clear 77 25 55 13 47 47 NW 13 20 29.88 1012 10 16.09344 0 0
10:15 pm 22:15 Clear 75 24 55 13 50 50 NW 16 26 29.88 1012 10 16.09344 0 0
10:35 pm 22:35 Clear 75 24 55 13 50 50 NW 14 22 29.91 1013 10 16.09344 0 0
10:55 pm 22:55 Clear 73 23 55 13 53 53 NW 15 24 29.91 1013 10 16.09344 0 0
11:15 pm 23:15 Clear 73 23 55 13 53 53 NW 9 15 29.91 1013 10 16.09344 0 0
11:35 pm 23:35 Clear 73 23 55 13 53 53 N 9 15 29.91 1013 10 16.09344 0 0
11:55 pm 23:55 Clear 72 22 55 13 57 57 N 6 9 29.91 1013 10 16.09344 0 0

Powered by AerisWeather